Lapse_Rate
0.4 0.7 1.6 5.1 6.5 6.5 6.5 6.5 6.5 6.5 6.5 7.3 7.5 7.0 6.6 7.2 6.5 6.5 5.8 5.2 4.3 3.9 3.8 3.9 2.7 2.6 2.5 2.4 2.7 3.0 3.1 3.0 2.7 2.6 2.8 3.0 3.2 3.7 4.1 4.5 4.7 4.9 5.3 5.6 5.2 5.2 5.1 5.1 4.7
0.8 3.0 4.2 4.8 6.5 6.5 6.5 6.5 6.5 6.5 7.1 7.2 6.0 7.1 7.0 6.5 7.6 6.3 7.2 4.9 4.3 3.6 3.8 4.2 2.7 2.6 2.5 2.2 2.4 2.7 2.9 2.7 2.8 2.7 2.9 2.9 3.2 3.6 4.0 4.2 4.5 4.9 5.2 5.4 5.5 5.2 4.8 4.4 4.1
1.8 3.0 6.5 6.5 6.5 6.5 6.5 6.5 6.5 7.0 7.4 7.3 7.0 7.4 7.4 7.2 7.3 7.6 5.7 4.7 4.3 3.8 3.7 3.3 2.7 2.7 2.5 2.2 2.2 2.6 2.6 2.5 2.7 2.9 3.0 3.0 3.2 3.6 3.9 3.9 4.4 4.8 5.3 5.4 5.2 5.0 4.5 4.0 4.0
4.1 5.6 5.9 6.5 6.5 6.5 6.5 6.5 7.0 6.9 7.3 7.6 7.1 6.6 7.3 6.6 7.1 6.1 4.4 4.7 4.6 4.0 3.8 2.2 2.6 2.7 2.6 2.4 2.2 2.3 2.4 2.4 2.5 2.9 2.9 3.2 3.3 3.4 3.5 3.6 4.1 4.6 4.8 4.9 4.6 4.2 4.0 3.7 3.8
3.4 5.2 6.5 6.5 6.5 6.5 6.6 7.1 7.2 6.5 6.9 7.2 7.4 6.7 7.3 6.8 5.3 4.6 4.1 4.5 4.2 3.9 3.7 3.0 2.5 2.8 2.7 2.6 2.2 2.2 2.3 2.4 2.4 2.7 3.1 3.2 3.1 3.2 3.3 3.4 3.9 4.4 4.5 4.2 3.8 3.3 3.3 3.3 3.5
6.1 6.3 6.5 6.5 6.5 6.5 6.7 7.3 7.2 7.0 7.3 7.3 7.1 7.1 7.4 7.1 5.9 4.9 4.6 4.1 3.7 3.6 3.4 3.2 2.5 2.8 2.8 2.5 2.3 2.1 2.3 2.4 2.6 2.8 3.1 3.0 3.0 2.9 3.2 3.5 3.8 4.1 4.2 3.9 3.5 3.0 2.9 3.0 2.9
6.6 6.5 6.5 6.5 6.5 6.5 6.5 7.0 7.0 7.0 7.1 7.2 7.5 6.6 7.8 6.2 5.7 4.8 4.1 4.2 3.9 3.4 3.2 3.3 3.9 3.4 2.7 2.6 2.5 2.4 2.6 2.6 2.7 3.0 3.0 3.1 3.0 3.0 3.3 3.7 3.8 4.1 4.1 3.6 3.6 3.2 2.9 2.6 2.5
5.7 6.7 6.5 6.5 6.5 6.5 7.0 7.2 7.5 7.3 7.0 8.3 8.3 6.7 6.9 6.9 6.1 6.3 5.0 3.7 4.0 3.9 3.9 3.2 3.7 4.0 3.8 3.5 2.9 2.8 2.8 2.9 3.0 3.3 3.3 3.4 3.5 3.3 3.6 3.8 3.8 3.8 4.0 3.3 3.2 3.3 3.3 3.0 2.8
5.2 6.5 6.5 6.5 6.5 6.5 7.4 6.8 7.7 8.0 7.5 7.9 8.2 8.0 8.4 7.4 6.8 5.9 6.1 5.2 3.8 3.4 4.4 4.0 3.6 4.0 3.8 3.9 3.4 3.1 2.8 3.0 3.1 3.4 3.5 3.8 5.4 4.9 4.6 5.2 4.0 3.9 4.3 3.7 3.5 3.7 3.6 3.1 2.9
6.7 6.5 6.5 6.7 6.7 6.5 7.1 7.2 7.3 7.3 7.4 7.4 7.5 6.4 6.6 6.4 7.8 7.7 5.6 6.8 6.1 4.3 3.7 4.1 3.9 4.5 4.3 4.6 3.9 4.0 4.0 4.3 4.5 4.4 4.3 5.1 5.0 5.0 5.3 4.8 4.0 4.0 4.6 4.5 4.3 4.2 3.7 4.0 5.0
6.9 6.5 6.6 6.9 7.2 7.2 7.1 7.2 7.7 7.1 6.5 7.4 7.5 7.5 5.2 4.5 4.2 4.3 6.9 7.3 5.6 6.0 5.5 4.8 4.6 3.8 4.4 5.0 4.2 4.4 4.5 4.2 4.0 4.0 3.9 4.3 5.0 4.9 5.3 5.0 5.2 5.2 4.9 5.7 5.4 4.8 5.8 5.7 5.8
6.5 7.0 7.0 7.1 7.4 7.1 6.9 7.5 7.2 7.4 7.4 8.1 7.9 6.6 4.6 3.8 3.8 3.9 3.9 3.4 5.9 6.5 5.7 5.4 5.3 4.4 4.4 5.4 4.1 4.7 4.2 4.1 3.8 3.8 3.6 3.7 4.6 4.5 5.2 5.5 5.0 4.9 5.2 5.6 5.6 5.8 5.5 5.3 5.4
6.5 6.8 7.1 6.5 7.4 7.4 7.5 7.1 7.1 7.3 7.7 6.7 6.2 4.6 4.6 4.7 4.5 4.3 4.0 3.7 2.7 5.3 7.2 6.5 5.5 4.4 4.3 4.6 4.0 4.7 4.6 4.1 3.9 2.9 3.1 4.0 4.2 4.4 5.1 5.2 5.3 5.5 4.7 4.8 5.2 5.7 5.5 5.4 5.4
7.0 7.1 7.1 7.3 7.1 7.2 6.9 7.0 7.2 7.6 8.1 7.3 6.0 7.2 5.9 5.0 5.2 3.7 3.0 3.2 2.5 1.5 2.4 2.4 6.0 5.2 4.4 3.2 3.4 4.6 4.4 4.4 3.8 3.2 2.6 2.5 3.7 3.9 4.4 5.0 4.9 5.2 5.0 5.1 5.1 5.4 5.7 6.1 5.9
6.6 6.5 6.8 7.0 7.1 6.9 6.9 6.5 6.5 7.6 8.0 7.7 7.9 7.6 6.0 6.3 5.0 4.9 4.5 4.0 3.6 2.8 1.4 0.3 0.6 6.4 5.5 4.3 3.6 4.0 4.7 4.5 4.3 3.7 2.2 2.1 2.5 3.1 3.6 4.1 4.1 5.0 4.7 4.3 4.5 4.6 5.0 5.7 5.7
6.5 6.5 6.5 6.7 7.0 7.0 6.9 6.5 7.0 7.7 7.7 7.6 7.8 8.0 8.0 6.0 6.4 5.7 4.3 3.6 3.0 2.3 1.3 1.2 0.7 4.9 6.9 5.8 5.3 4.6 5.0 4.6 4.1 3.7 2.7 2.4 2.3 2.5 3.0 3.4 4.1 4.8 4.6 4.8 5.0 5.3 5.9 6.3 6.6
6.5 6.5 6.5 6.5 7.0 6.7 6.7 6.5 7.1 7.8 7.6 7.5 7.8 8.0 8.0 7.2 5.0 4.3 5.3 3.7 3.0 2.0 1.1 1.1 1.8 1.4 1.0 5.1 5.4 5.3 5.3 5.2 3.7 2.8 2.5 3.0 2.8 2.5 3.1 3.8 4.2 3.9 4.7 4.7 5.2 5.4 5.7 6.3 6.6
6.5 6.5 6.5 6.5 6.5 6.5 6.5 6.5 6.9 7.5 7.6 7.5 7.8 8.0 8.0 8.1 7.7 5.9 4.7 4.7 3.7 2.1 1.9 2.0 2.8 3.5 1.5 0.9 5.5 5.0 5.2 5.5 4.2 2.7 2.4 3.4 3.4 3.1 3.0 3.8 4.0 3.7 4.5 4.8 4.7 4.9 5.2 6.1 7.0
6.5 6.5 6.5 6.5 6.5 6.5 6.5 6.5 6.5 7.3 7.5 7.4 7.6 7.8 8.0 8.0 8.6 6.9 5.3 4.4 4.3 3.7 2.0 1.7 2.1 2.7 2.1 1.5 1.5 5.4 5.4 5.2 4.8 3.5 3.0 2.9 3.3 3.4 3.1 4.0 3.5 3.3 4.8 4.7 3.8 4.4 4.7 5.2 5.4
6.5 6.5 6.5 6.5 6.5 6.5 6.5 6.5 6.5 7.1 7.2 7.4 7.6 7.8 7.9 8.0 6.9 6.6 5.8 5.0 4.2 4.6 4.1 3.1 2.8 3.1 2.7 1.6 1.5 1.8 3.9 5.4 4.9 4.2 3.5 3.5 3.1 3.5 3.7 3.9 4.4 3.5 4.5 4.2 4.0 4.0 4.9 5.3 5.2
6.5 6.5 6.5 6.5 6.5 6.5 6.5 6.5 6.5 6.8 7.3 7.5 7.8 8.0 8.1 8.1 8.0 7.4 6.4 5.9 5.5 4.8 4.4 4.8 4.7 3.7 3.8 2.2 1.6 1.9 4.2 4.8 4.7 4.5 4.4 3.9 3.2 3.3 3.5 4.0 4.6 4.3 3.9 4.4 3.7 3.8 4.4 5.6 4.5
6.5 6.5 6.5 6.5 6.5 6.5 6.5 6.5 6.5 6.5 6.5 7.0 7.5 7.8 8.0 8.2 8.3 8.4 8.0 6.3 6.0 5.8 5.5 5.3 5.3 5.2 4.6 3.3 2.8 2.4 2.5 2.3 5.2 5.3 4.7 4.8 4.2 4.0 3.8 4.3 4.1 4.5 4.4 4.6 4.1 4.2 4.3 5.4 5.9
6.5 6.5 6.5 6.5 6.5 6.5 6.5 6.5 6.5 6.5 6.5 6.5 7.2 7.6 8.0 8.3 8.3 8.3 8.3 7.7 6.9 6.1 6.0 5.8 6.1 5.7 5.1 4.4 3.7 3.5 2.9 3.5 2.6 3.2 5.1 4.4 6.0 5.5 5.1 4.4 4.5 4.6 4.5 4.4 4.4 4.0 3.4 4.8 6.5
6.7 6.5 6.5 6.5 6.5 6.5 6.5 6.5 6.5 6.5 6.5 6.5 7.2 7.7 7.9 8.2 8.3 8.2 8.4 8.3 8.1 7.3 6.4 6.1 6.1 6.6 5.7 5.0 4.4 3.8 3.2 2.2 2.1 2.2 2.5 5.1 4.8 5.0 5.7 5.8 5.4 4.5 5.0 4.6 4.3 3.8 4.2 4.2 5.1
6.5 6.5 6.5 6.5 6.5 6.5 6.5 6.5 6.5 6.5 6.5 6.7 7.0 7.5 7.9 8.2 8.2 8.3 8.5 8.6 7.9 7.5 7.3 7.1 6.4 6.5 6.4 5.4 4.7 4.5 3.9 3.1 2.9 3.1 3.1 3.1 4.5 4.8 4.2 5.1 4.1 4.8 4.7 5.4 5.1 4.9 4.5 4.2 4.7
6.5 6.5 6.5 6.5 6.5 6.5 6.5 6.5 6.5 6.5 7.2 7.4 7.6 7.8 8.0 8.1 8.3 8.4 8.4 8.2 8.3 7.8 7.5 7.3 6.8 6.3 6.8 6.3 5.4 5.0 4.6 4.5 4.0 3.5 3.5 3.8 4.0 4.1 5.1 4.9 5.0 3.4 3.8 4.3 6.0 5.8 5.4 5.3 4.9
6.5 6.5 6.5 6.5 6.5 6.5 6.5 6.5 6.5 6.7 6.8 7.2 7.4 7.6 7.7 8.0 8.2 8.2 7.9 8.0 7.9 7.6 7.3 7.2 7.0 6.6 6.3 6.5 6.1 5.5 5.0 4.4 4.3 4.0 3.8 2.9 2.9 3.7 4.0 4.1 5.1 4.7 5.5 4.3 4.5 5.8 5.5 5.8 5.6
6.5 6.6 6.5 6.5 6.5 6.5 6.5 6.5 6.5 6.5 6.5 6.7 7.1 7.4 7.6 8.0 8.0 8.1 7.8 7.8 7.7 7.6 7.4 7.1 7.1 7.0 6.4 5.7 6.0 5.9 5.4 5.0 4.6 4.6 4.4 3.9 3.2 3.5 3.6 3.9 4.2 5.5 5.6 4.1 5.2 4.9 4.8 6.8 5.8
6.5 6.5 6.5 6.5 6.5 6.5 6.5 6.5 6.5 6.5 6.5 6.5 7.2 7.6 7.8 7.8 8.0 8.1 7.8 7.8 7.6 7.5 7.3 7.2 7.3 6.9 6.6 6.3 5.6 5.4 5.0 5.0 5.0 4.8 4.8 4.6 4.1 3.2 3.1 3.6 3.5 4.6 5.0 5.8 5.0 4.6 4.6 6.8 5.8
6.5 6.5 6.5 6.5 6.5 6.5 6.5 6.5 6.7 6.8 7.0 7.2 7.3 7.6 7.8 7.6 7.8 7.8 7.6 7.5 7.3 7.4 7.5 7.6 7.2 6.9 6.6 6.4 5.8 5.2 5.2 4.7 4.8 5.0 4.9 4.8 4.5 4.4 4.2 3.7 3.2 3.4 4.1 4.1 5.2 5.8 5.7 5.5 5.7
Wind_Speed
13 10 1 2 2 8 11 9 4 14 4 2 5 3 2 6 2 2 4 5 21 19 20 17 14 15 18 23 24 24 25 23 24 24 22 21 21 21 21 22 22 23 23 22 21 21 21 21 20
9 2 2 2 5 7 7 11 14 12 9 12 3 2 4 5 5 5 6 11 20 22 20 19 16 16 18 22 23 23 23 24 22 23 22 22 21 20 22 22 23 23 22 22 22 20 19 19 19
2 2 2 4 4 9 5 14 14 14 8 8 2 4 3 6 5 3 10 17 20 19 20 19 16 15 17 22 23 22 22 23 22 21 21 21 21 21 22 23 23 24 23 22 20 17 17 19 20
3 2 3 10 14 7 7 13 17 19 14 19 6 7 8 10 8 4 13 18 17 18 20 21 19 15 17 20 22 22 21 21 22 20 21 21 22 21 22 22 23 22 21 18 15 14 18 19 20
3 2 4 5 6 6 10 15 16 20 7 21 13 6 6 10 10 10 13 13 15 16 19 21 20 16 17 20 21 21 21 19 20 20 20 21 22 21 20 22 21 19 17 16 15 17 21 20 19
3 2 3 6 9 12 8 15 15 23 20 26 10 5 6 10 11 7 8 10 12 14 16 18 19 17 17 19 20 21 21 20 18 19 19 20 20 21 21 22 21 18 17 16 17 20 21 19 18
4 3 4 4 5 8 12 15 15 15 25 26 9 7 4 14 9 8 7 8 9 12 15 14 14 14 15 18 22 22 21 21 19 18 20 20 22 21 22 21 21 20 17 15 18 21 21 19 18
3 3 4 9 6 8 14 10 9 17 18 9 18 11 9 9 7 7 8 8 7 6 8 10 11 12 13 14 19 21 21 20 19 18 19 21 21 22 21 21 19 19 17 15 19 22 20 18 19
1 5 8 8 8 5 16 12 9 12 9 20 19 17 13 7 5 6 5 7 6 5 5 7 9 10 10 12 13 16 17 18 18 16 17 18 15 16 18 15 18 18 17 16 20 21 19 18 17
7 5 6 7 3 4 19 24 12 13 21 17 26 24 20 19 13 6 2 3 4 5 5 6 8 8 8 10 13 13 13 14 13 15 15 11 12 13 14 15 15 16 17 18 20 17 17 14 12
7 5 5 11 8 2 9 24 22 14 17 15 18 19 19 20 19 19 13 3 5 6 5 7 8 8 11 10 10 11 12 11 11 13 15 11 10 10 10 12 13 13 13 12 14 13 10 9 10
12 17 8 3 13 5 9 9 22 19 9 12 14 14 20 23 20 19 17 15 13 8 10 11 12 10 12 10 10 11 12 13 11 12 14 14 10 9 9 10 12 13 14 13 12 11 9 8 8
10 3 11 6 18 18 21 17 21 20 14 15 16 22 21 20 20 18 18 17 16 12 10 10 14 12 13 13 12 14 14 14 15 14 15 15 13 11 11 10 11 12 12 14 12 10 9 8 8
6 15 19 12 6 16 10 12 10 14 12 18 19 20 19 21 21 20 22 20 20 19 17 16 11 14 17 14 15 16 16 16 16 16 17 18 16 14 13 11 11 11 11 11 12 12 11 9 8
4 6 15 19 11 8 4 16 14 12 12 18 18 18 19 20 22 21 19 18 17 15 18 18 15 17 14 16 16 18 19 17 16 16 20 22 20 17 16 13 12 13 11 9 8 8 8 8 8
6 5 4 10 18 8 2 5 17 12 16 17 18 17 18 21 20 20 21 19 19 17 18 18 15 11 15 13 12 13 17 19 16 16 17 23 23 21 18 14 14 16 13 10 9 8 6 6 6
10 5 6 2 11 6 10 4 15 10 17 17 16 16 17 19 24 23 21 20 19 19 19 19 18 14 14 13 14 13 17 18 16 15 16 21 24 23 20 16 16 17 15 13 10 7 6 7 7
4 4 4 5 7 7 8 9 9 10 16 15 16 17 18 18 20 20 22 19 18 19 18 18 15 16 14 14 9 9 9 12 16 15 16 19 22 22 21 19 17 18 14 10 9 10 7 5 7
10 8 4 1 3 5 7 8 8 8 13 14 14 15 17 18 16 17 19 20 19 18 20 20 19 18 11 9 7 6 9 8 7 14 18 21 22 24 23 19 18 19 12 13 13 10 11 8 5
10 7 6 2 4 2 2 7 2 8 9 9 11 14 17 18 22 21 21 21 20 19 19 20 19 18 12 9 8 4 5 6 7 11 15 20 21 23 23 20 14 17 11 13 13 13 9 9 9
7 7 3 3 8 2 1 4 4 4 5 7 12 11 12 15 16 19 20 19 20 21 19 18 18 19 16 16 8 7 6 4 5 8 9 15 23 24 23 22 18 15 13 12 13 13 16 10 9
3 6 5 5 4 2 5 1 1 5 6 10 13 14 15 16 15 16 18 18 19 19 18 18 17 18 16 18 14 15 6 7 4 7 8 10 21 22 22 22 21 17 14 13 13 11 13 11 11
2 10 1 1 2 1 7 1 3 4 3 12 14 14 14 15 14 15 16 16 16 17 17 17 18 18 18 17 15 11 12 9 8 8 7 11 10 20 23 22 21 15 13 14 14 13 14 12 11
10 2 4 3 1 2 1 5 2 2 2 6 11 15 15 15 15 13 14 14 15 15 17 17 18 18 19 17 17 16 16 14 10 10 7 6 6 7 15 20 18 19 14 15 14 16 16 15 14
11 4 2 2 3 2 3 5 3 3 3 3 8 13 15 14 14 14 14 14 15 16 17 17 19 18 19 19 18 17 16 14 14 12 9 10 7 6 11 13 13 13 17 18 16 14 16 16 14
6 5 3 1 2 4 8 1 3 7 5 3 6 11 13 14 11 13 13 13 14 15 15 16 19 19 18 18 17 16 16 10 10 10 11 8 8 7 10 10 13 16 18 17 16 12 13 15 14
2 5 2 3 2 2 3 3 7 7 10 9 12 16 16 16 13 11 12 12 13 12 13 14 16 17 18 18 15 15 15 15 13 15 13 9 11 10 11 11 14 15 14 15 15 13 16 16 16
5 3 2 3 1 1 3 4 3 8 10 13 16 18 18 16 12 10 10 11 12 12 11 11 14 15 15 17 15 13 14 14 14 13 14 14 13 15 13 12 11 14 16 16 16 14 16 17 15
2 2 5 3 1 1 3 2 5 6 9 15 17 14 14 12 10 10 8 9 10 10 10 9 12 14 14 14 15 15 14 15 14 12 13 14 15 14 15 13 14 11 11 16 15 16 16 19 18
1 3 3 2 3 2 1 5 5 5 10 12 12 13 13 9 11 10 9 8 9 9 9 9 10 12 13 14 14 14 13 14 14 14 14 14 15 14 14 14 13 13 13 10 13 17 17 18 18
Wind_Direction
325 329 308 37 109 78 53 5 295 321 322 279 327 207 167 41 8 11 85 125 137 135 140 139 132 129 126 118 117 116 114 113 114 115 117 115 114 114 113 111 114 110 107 104 104 104 105 103 97
323 333 52 75 73 79 47 348 358 328 301 297 254 125 55 62 40 85 117 136 138 133 138 141 140 131 127 119 117 117 118 118 119 121 122 120 119 118 117 118 117 115 113 112 110 106 106 104 100
288 350 64 76 61 65 43 354 348 339 2 13 95 52 49 16 49 95 123 142 137 134 138 138 139 134 128 121 120 121 122 124 126 127 127 125 124 121 122 120 122 121 119 117 113 106 108 106 104
354 47 68 94 94 86 33 351 351 10 10 12 340 66 86 24 340 86 134 142 139 139 141 139 138 140 133 125 125 126 127 129 130 132 131 130 127 125 123 122 121 121 121 121 117 116 118 116 115
32 65 79 89 89 87 17 360 0 30 32 12 2 42 64 18 34 114 131 141 141 140 142 143 141 143 140 133 131 131 132 134 135 135 135 131 129 128 125 122 122 124 124 121 115 120 126 124 123
59 85 85 98 89 53 357 355 13 33 32 20 15 34 65 21 50 80 123 136 141 139 141 144 144 145 143 136 135 135 138 139 139 138 134 131 132 131 129 129 131 129 127 121 117 123 128 130 129
90 66 82 83 79 44 359 339 26 24 30 22 345 42 52 23 40 58 89 110 125 134 137 143 149 148 144 142 144 144 145 145 144 142 137 136 138 139 136 136 138 138 133 127 131 136 137 137 136
74 78 67 33 37 55 357 348 16 25 48 13 29 16 2 353 43 77 82 91 105 123 138 142 152 157 154 151 151 150 150 151 150 148 145 142 144 146 145 144 146 145 138 134 141 146 145 145 144
7 57 56 28 36 354 14 25 22 25 58 41 37 24 341 356 49 77 114 123 129 146 156 162 166 170 161 155 155 153 154 154 154 153 152 146 149 152 155 154 155 153 144 140 148 150 148 146 148
40 68 62 3 23 36 57 49 31 47 33 11 15 13 18 24 22 26 92 179 178 169 189 191 185 185 177 169 162 164 163 164 168 165 165 166 161 162 162 159 157 158 151 146 152 153 149 144 145
25 68 94 37 353 64 101 60 43 48 37 11 360 1 13 25 26 28 2 280 221 209 205 205 202 199 200 184 181 177 175 173 175 176 171 171 170 166 170 163 163 162 157 155 155 156 165 166 158
97 64 64 31 28 29 66 66 52 47 20 359 21 24 29 27 24 23 17 13 320 241 218 211 212 203 207 201 203 194 184 180 184 188 185 175 180 189 190 184 175 173 175 170 174 175 168 165 172
83 94 52 79 53 63 69 60 60 40 26 29 31 28 25 24 22 22 20 14 12 351 296 236 215 206 206 208 209 206 203 193 191 189 193 192 187 191 199 199 195 190 182 178 178 179 178 176 181
130 83 65 41 47 46 62 48 52 22 39 41 31 26 23 19 13 15 17 11 4 352 348 337 238 218 213 196 200 210 206 201 198 194 197 198 198 192 198 207 208 205 198 191 186 183 184 187 182
103 68 48 22 24 38 222 50 39 8 43 43 36 25 19 20 13 15 8 6 2 356 347 346 325 235 212 223 211 199 204 206 206 208 202 200 201 199 194 202 214 210 210 200 193 195 192 189 191
45 52 51 15 11 9 33 49 38 27 52 43 35 27 22 14 12 10 7 2 0 359 357 348 351 292 231 221 218 219 211 203 207 213 214 209 204 202 201 203 207 207 205 209 206 200 201 206 203
28 90 62 30 17 2 39 31 26 40 54 46 41 35 23 16 8 3 8 3 360 358 356 357 358 0 350 249 224 217 223 215 204 205 213 220 212 205 207 212 212 202 205 207 210 210 220 209 210
87 85 61 44 5 37 37 44 47 51 59 47 38 29 26 18 9 358 359 8 4 360 358 357 360 358 354 346 226 223 219 226 207 206 212 219 219 214 211 215 217 210 206 209 207 212 208 227 225
111 97 93 336 20 358 15 45 60 53 53 43 29 26 22 14 6 5 2 3 5 8 1 358 356 358 357 357 337 245 222 213 219 211 213 209 214 214 212 218 215 211 216 214 208 210 212 211 213
76 99 33 282 327 338 62 74 94 42 41 38 36 28 18 11 5 4 359 360 4 3 2 356 353 354 355 348 324 279 298 227 217 216 210 215 210 211 213 214 215 215 215 219 217 210 208 218 199
66 58 18 321 319 66 44 146 75 47 28 35 32 26 25 13 7 358 358 357 357 1 359 356 351 350 353 351 336 330 317 239 206 213 213 214 213 210 211 214 216 213 215 216 215 216 215 217 204
87 33 347 332 328 28 345 94 149 357 16 30 12 8 6 5 5 1 359 359 359 357 355 357 354 353 352 353 352 351 329 330 303 212 218 220 215 216 212 213 211 213 214 217 214 215 220 222 222
348 340 314 210 111 192 34 281 136 353 8 13 10 6 1 359 359 356 359 359 355 357 356 356 358 358 355 353 355 350 346 335 322 326 246 220 213 216 217 212 213 214 212 218 212 207 207 214 225
327 30 76 70 55 81 63 354 86 29 23 12 20 15 3 354 354 351 350 357 0 0 358 357 357 359 357 355 352 352 351 343 342 340 331 304 214 214 223 225 221 218 219 220 216 211 208 211 216
10 41 69 99 36 26 337 321 334 204 224 301 351 357 1 353 347 347 347 347 348 351 356 354 355 352 357 354 353 351 349 345 342 340 331 325 312 223 223 219 218 223 223 226 222 215 215 210 214
12 25 73 39 5 327 334 262 336 241 255 270 310 342 345 347 340 336 341 339 337 341 346 353 352 348 350 352 349 349 349 346 340 337 329 335 341 319 287 224 222 226 227 226 226 225 221 222 219
50 49 24 98 52 258 319 293 282 264 267 283 315 328 335 336 336 326 339 338 337 342 341 347 351 348 344 347 345 347 348 347 342 339 338 339 334 330 327 318 237 233 230 226 223 223 230 228 223
69 113 145 45 86 308 270 271 287 332 320 316 318 323 322 326 328 326 332 333 337 346 342 344 350 349 343 341 344 344 344 346 343 339 341 341 336 330 329 329 323 240 229 227 223 224 230 230 227
137 122 70 100 53 174 297 212 217 275 314 315 315 314 321 326 320 320 323 332 342 344 347 340 346 347 346 344 340 339 343 343 346 343 341 341 337 335 332 333 330 315 282 235 222 228 227 225 227
94 144 147 151 181 215 286 270 220 261 319 334 327 322 322 328 320 319 321 331 333 337 348 341 341 343 342 340 340 339 340 342 342 346 344 339 339 336 333 336 334 330 326 310 255 222 227 228 224